Kahului, HI

3:46 PM HST on November 17, 2017 (GMT -1000)
Kahului

Weather History for PHOG - October, 2012

Change the Weather History Date:

Monday, October 15, 2012

  Actual Average Record
Temperature  
Mean Temperature 80 °F 78 °F  
Max Temperature 86 °F 87 °F 95 °F (1984)
Min Temperature 74 °F 70 °F 60 °F (1949)
Degree Days  
Heating Degree Days 0 0  
Month to date heating degree days 0 0  
Since 1 July heating degree days 12 0  
Cooling Degree Days 15 13  
Month to date cooling degree days 202 204  
Year to date cooling degree days 3144 3172  
Growing Degree Days 30 (Base 50)    
Moisture  
Dew Point 70 °F    
Average Humidity 74    
Maximum Humidity 93    
Minimum Humidity 55    
Precipitation  
Precipitation T in 0.04 in 1.99 in (1961)
Month to date precipitation 0.01 0.46  
Year to date precipitation 4.71 11.54  
Snow  
Snow 0.00 in - - ()
Month to date snowfall 0.0  
Since 1 July snowfall 0.0  
Since 1 September snowfall 0.0  
Snow Depth 0.00 in    
Sea Level Pressure  
Sea Level Pressure 30.06 in    
Wind  
Wind Speed 17 mph (NE)    
Max Wind Speed 28 mph    
Max Gust Speed 36 mph    
Visibility 10 miles    
Events Rain    
T = Trace of Precipitation, MM = Missing Value Source: NWS Daily Summary

Daily Weather History Graph

Daily Weather History Graph

Search for Another Location

Airport or City:

Trip Planner

Search our weather history database for the weather conditions in past years. The results will help you decide how hot, cold, wet, or windy it might be!

Date:

Astronomy

Oct. 15, 2012 Rise Set
Actual Time 6:21 AM HST 6:00 PM HST
Civil Twilight 5:58 AM HST 6:23 PM HST
Nautical Twilight 5:33 AM HST 6:49 PM HST
Astronomical Twilight 5:07 AM HST 7:14 PM HST
Moon 6:36 AM HST (10/15) 6:20 PM HST (10/15)
Length of Visible Light 12h 24m
Length of Day
11h 39m
New Moon, 0% of the Moon is Illuminated
Oct 15
New Moon
Oct 21
First Quarter
Oct 29
Full
Nov 6
Last Quarter
Nov 13
New

Hourly Weather History & Observations

Time (HST) Temp. Heat Index Dew Point Humidity Pressure Visibility Wind Dir Wind Speed Gust Speed Precip Events Conditions
12:54 AM 75.9 °F - 66.9 °F 74% 30.10 in 10.0 mi ENE 8.1 mph - N/A   Clear
1:54 AM 75.9 °F - 69.1 °F 79% 30.09 in 10.0 mi NE 13.8 mph - N/A   Clear
2:54 AM 75.0 °F - 70.0 °F 84% 30.09 in 10.0 mi NE 12.7 mph - N/A   Scattered Clouds
3:54 AM 75.0 °F - 70.0 °F 84% 30.08 in 10.0 mi NE 13.8 mph - N/A   Partly Cloudy
4:54 AM 75.0 °F - 70.0 °F 84% 30.09 in 10.0 mi NE 11.5 mph - N/A   Overcast
5:54 AM 73.9 °F - 71.1 °F 91% 30.10 in 10.0 mi NE 13.8 mph - 0.00 in Rain Light Rain
6:54 AM 73.9 °F - 72.0 °F 93% 30.11 in 10.0 mi NE 18.4 mph - 0.00 in Rain Light Rain
7:54 AM 78.1 °F - 70.0 °F 76% 30.11 in 8.0 mi NNE 15.0 mph - 0.00 in   Scattered Clouds
8:54 AM 81.0 °F 84.9 °F 71.1 °F 72% 30.11 in 10.0 mi NE 17.3 mph - N/A   Partly Cloudy
9:54 AM 84.0 °F 86.5 °F 66.9 °F 56% 30.11 in 10.0 mi NE 21.9 mph 25.3 mph N/A   Partly Cloudy
10:54 AM 84.0 °F 89.6 °F 72.0 °F 67% 30.08 in 10.0 mi NE 19.6 mph 29.9 mph N/A   Partly Cloudy
11:54 AM 84.9 °F 88.8 °F 69.1 °F 59% 30.05 in 10.0 mi NE 21.9 mph 29.9 mph N/A   Partly Cloudy
12:54 PM 84.9 °F 88.8 °F 69.1 °F 59% 30.02 in 10.0 mi ENE 17.3 mph 31.1 mph N/A   Partly Cloudy
1:54 PM 84.9 °F 90.1 °F 71.1 °F 63% 29.99 in 10.0 mi NE 24.2 mph 32.2 mph N/A   Partly Cloudy
2:54 PM 84.0 °F 87.8 °F 69.1 °F 61% 29.97 in 10.0 mi ENE 24.2 mph 34.5 mph N/A   Scattered Clouds
3:54 PM 84.0 °F 87.8 °F 69.1 °F 61% 29.96 in 10.0 mi ENE 25.3 mph 32.2 mph N/A   Partly Cloudy
4:54 PM 81.0 °F 84.4 °F 70.0 °F 69% 29.98 in 10.0 mi East 18.4 mph 28.8 mph N/A   Scattered Clouds
5:54 PM 78.1 °F - 71.1 °F 79% 30.00 in 10.0 mi ENE 13.8 mph 20.7 mph N/A   Scattered Clouds
6:54 PM 75.9 °F - 70.0 °F 82% 30.02 in 10.0 mi ENE 11.5 mph - N/A   Clear
7:54 PM 75.9 °F - 71.1 °F 85% 30.04 in 10.0 mi East 9.2 mph 19.6 mph N/A   Partly Cloudy
8:54 PM 75.0 °F - 72.0 °F 90% 30.06 in 10.0 mi ENE 6.9 mph - N/A   Partly Cloudy
9:54 PM 75.0 °F - 71.1 °F 87% 30.06 in 10.0 mi NE 11.5 mph - N/A   Clear
10:54 PM 75.9 °F - 70.0 °F 82% 30.05 in 10.0 mi NE 12.7 mph - N/A   Scattered Clouds
11:54 PM 73.9 °F - 70.0 °F 87% 30.05 in 10.0 mi ENE 12.7 mph - N/A   Clear